This is the latest recevied weather packets stored in our database for station/object KI7MOQ. If no packets are shown the sender has not sent any weather packets the latest 10 day(s).
| Time | Temp. | Humidity | Pressure | Rain* | Wind** | Luminosity | Snow |
|---|---|---|---|---|---|---|---|
| 1777410561 | 13.89° C | 58% | 1026.1 hPa | 0 mm | - | 106 W/m² | - |
| 1777410261 | 13.89° C | 58% | 1026.1 hPa | 0 mm | - | 98 W/m² | - |
| 1777409956 | 13.89° C | 58% | 1026 hPa | 0 mm | - | 91 W/m² | - |
| 1777409651 | 13.89° C | 58% | 1026.1 hPa | 0 mm | - | 118 W/m² | - |
| 1777409347 | 13.89° C | 57% | 1026 hPa | 0 mm | - | 128 W/m² | - |
| 1777409042 | 13.89° C | 58% | 1026.1 hPa | 0 mm | - | 152 W/m² | - |
| 1777408740 | 13.89° C | 59% | 1026 hPa | 0 mm | - | 170 W/m² | - |
| 1777408435 | 13.89° C | 57% | 1026.2 hPa | 0 mm | - | 113 W/m² | - |
| 1777408130 | 13.89° C | 59% | 1026 hPa | 0 mm | - | 93 W/m² | - |
| 1777407825 | 13.33° C | 59% | 1026.1 hPa | 0 mm | - | 89 W/m² | - |
| 1777407523 | 13.33° C | 60% | 1026.2 hPa | 0 mm | - | 78 W/m² | - |
| 1777407217 | 13.33° C | 61% | 1026.1 hPa | 0 mm | - | 58 W/m² | - |
| 1777406912 | 13.33° C | 61% | 1026.1 hPa | 0 mm | - | 77 W/m² | - |
| 1777406607 | 13.33° C | 61% | 1026 hPa | 0 mm | - | 94 W/m² | - |
| 1777406303 | 13.33° C | 60% | 1026.3 hPa | 0 mm | - | 122 W/m² | - |
| 1777406002 | 13.89° C | 60% | 1026.1 hPa | 0 mm | - | 129 W/m² | - |
| 1777405699 | 13.33° C | 60% | 1026.3 hPa | 0 mm | - | 117 W/m² | - |
| 1777405395 | 13.33° C | 61% | 1026.2 hPa | 0 mm | - | 114 W/m² | - |
| 1777405092 | 13.33° C | 62% | 1026.4 hPa | 0 mm | - | 156 W/m² | - |
| 1777404786 | 13.33° C | 62% | 1026.3 hPa | 0 mm | - | 191 W/m² | - |
| 1777404483 | 12.78° C | 64% | 1026.3 hPa | 0 mm | - | 190 W/m² | - |
| 1777404178 | 12.78° C | 64% | 1026.4 hPa | 0 mm | - | 167 W/m² | - |
| 1777403874 | 13.33° C | 63% | 1026.3 hPa | 0 mm | - | 113 W/m² | - |
| 1777403569 | 13.33° C | 63% | 1026.5 hPa | 0 mm | - | 133 W/m² | - |
| 1777403269 | 12.78° C | 64% | 1026.3 hPa | 0 mm | - | 169 W/m² | - |
* Rain latest hour (hover to see other rain measurements)
** Current wind speed in m/s (hover to see current wind gust speed)